This is the latest recevied weather packets stored in our database for station/object IZ1UQG-1. If no packets are shown the sender has not sent any weather packets the latest 10 day(s).
| Time | Temp. | Humidity | Pressure | Rain* | Wind** | Luminosity | Snow |
|---|---|---|---|---|---|---|---|
| 1777253053 | 17.78° C | 53% | 1017.6 hPa | 83.06 mm | - | - | - |
| 1777252753 | 17.78° C | 53% | 1017.8 hPa | 62.48 mm | - | - | - |
| 1777252453 | 17.78° C | 53% | 1017.7 hPa | 103.38 mm | - | - | - |
| 1777252153 | 17.78° C | 53% | 1017.6 hPa | 66.04 mm | - | - | - |
| 1777251853 | 17.78° C | 53% | 1017.8 hPa | 84.07 mm | - | - | - |
| 1777251553 | 17.78° C | 53% | 1017.7 hPa | 32.77 mm | - | - | - |
| 1777251253 | 17.78° C | 53% | 1017.5 hPa | 91.44 mm | - | - | - |
| 1777250953 | 17.78° C | 53% | 1017.8 hPa | 52.07 mm | - | - | - |
| 1777250653 | 17.78° C | 52% | 1017.7 hPa | 73.66 mm | - | - | - |
| 1777250053 | 18.33° C | 52% | 1017.6 hPa | 74.17 mm | - | - | - |
| 1777249753 | 18.33° C | 52% | 1017.7 hPa | 35.56 mm | - | - | - |
| 1777249453 | 18.33° C | 52% | 1017.8 hPa | 39.62 mm | - | - | - |
| 1777249153 | 18.33° C | 51% | 1017.6 hPa | 8.38 mm | - | - | - |
| 1777248853 | 18.33° C | 51% | 1017.8 hPa | 59.69 mm | - | - | - |
| 1777248553 | 18.33° C | 51% | 1017.7 hPa | 40.64 mm | - | - | - |
| 1777248253 | 18.33° C | 51% | 1017.8 hPa | 38.1 mm | - | - | - |
| 1777247953 | 18.89° C | 51% | 1017.8 hPa | 17.78 mm | - | - | - |
| 1777247653 | 18.89° C | 51% | 1017.8 hPa | 61.21 mm | - | - | - |
| 1777247353 | 18.89° C | 50% | 1017.7 hPa | 48.26 mm | - | - | - |
| 1777247053 | 18.89° C | 50% | 1017.6 hPa | 46.74 mm | - | - | - |
| 1777246753 | 18.89° C | 50% | 1017.8 hPa | 38.1 mm | - | - | - |
| 1777246454 | 18.89° C | 50% | 1017.8 hPa | 74.17 mm | - | - | - |
| 1777246153 | 18.89° C | 50% | 1017.7 hPa | 54.61 mm | - | - | - |
| 1777245853 | 18.89° C | 50% | 1017.6 hPa | 36.58 mm | - | - | - |
| 1777245553 | 18.89° C | 50% | 1017.8 hPa | 14.73 mm | - | - | - |
* Rain latest hour (hover to see other rain measurements)
** Current wind speed in m/s (hover to see current wind gust speed)